Location: *
(51.5000°N, 0.1100°W)
Time: 15:52:59
(UTC+00:00)

Meteor 1-4 Rocket - Pass Details

Date: 25 May 2024
Orbit: 358 x 379 km, 81.2° (Epoch: 16 June)

Event Time Altitude Azimuth Distance (km) Brightness Sun altitude
Exits shadow 00:29:53 15° 108° (ESE) 1,089 4.2 -17.1°
Maximum altitude 00:30:34 16° 91° (E) 1,047 4.3 -17.1°
Drops below altitude 10° 00:32:29 10° 50° (NE) 1,357 5.5 -17.1°
Sets 00:34:57 0° 28° (NNE) 2,215 7.3 -17.0°
